Rawlins, WY

12:12 AM MDT on October 20, 2017 (GMT -0600)
Rawlins Municipal

Weather History for KRWL - June, 2014

Change the Weather History Date:

Tuesday, June 10, 2014

  Actual Average Record
Temperature  
Mean Temperature 64 °F 57 °F  
Max Temperature 81 °F 73 °F 92 °F (2013)
Min Temperature 46 °F 42 °F 31 °F (2005)
Degree Days  
Heating Degree Days 1 8  
Month to date heating degree days 76 94  
Since 1 June heating degree days 76 94  
Since 1 July heating degree days 7906 8297  
Cooling Degree Days 0 0  
Month to date cooling degree days 0 0  
Year to date cooling degree days 2 0  
Since 1 June cooling degree days 0 0  
Growing Degree Days 14 (Base 50)    
Moisture  
Dew Point 28 °F    
Average Humidity 31    
Maximum Humidity 50    
Minimum Humidity 12    
Precipitation  
Precipitation T in 0.04 in 0.45 in (2009)
Month to date precipitation 0.13 0.41  
Year to date precipitation 2.64 4.33  
Sea Level Pressure  
Sea Level Pressure 29.75 in    
Wind  
Wind Speed 15 mph (SW)    
Max Wind Speed 43 mph    
Max Gust Speed 56 mph    
Visibility 10 miles    
Events      
T = Trace of Precipitation, MM = Missing Value Source: NWS Daily Summary

Daily Weather History Graph

Daily Weather History Graph

Search for Another Location

Airport or City:

Trip Planner

Search our weather history database for the weather conditions in past years. The results will help you decide how hot, cold, wet, or windy it might be!

Date:

Astronomy

Jun. 10, 2014 Rise Set
Actual Time 5:33 AM MDT 8:43 PM MDT
Civil Twilight 4:59 AM MDT 9:17 PM MDT
Nautical Twilight 4:15 AM MDT 10:01 PM MDT
Astronomical Twilight 3:23 AM MDT 10:53 PM MDT
Moon 6:09 PM MDT (6/10) 3:43 AM MDT (6/10)
Length of Visible Light 16h 17m
Length of Day
15h 09m
Waxing Gibbous, 92% of the Moon is Illuminated
Jun 10
Waxing Gibbous
Jun 12
Full
Jun 19
Last Quarter
Jun 27
New
Jul 5
First Quarter

Hourly Weather History & Observations

Time (MDT) Temp. Dew Point Humidity Pressure Visibility Wind Dir Wind Speed Gust Speed Precip Events Conditions
12:53 AM 57.0 °F 28.9 °F 34% 29.83 in 10.0 mi WSW 17.3 mph - N/A   Clear
1:53 AM 55.9 °F 30.0 °F 37% 29.82 in 10.0 mi WSW 16.1 mph - N/A   Clear
2:53 AM 55.0 °F 28.9 °F 37% 29.81 in 10.0 mi WSW 12.7 mph - N/A   Clear
3:53 AM 53.1 °F 28.9 °F 40% 29.82 in 10.0 mi WSW 10.4 mph - N/A   Clear
4:53 AM 53.1 °F 28.9 °F 40% 29.81 in 10.0 mi Calm Calm - N/A   Clear
5:53 AM 48.9 °F 30.9 °F 50% 29.85 in 10.0 mi SSW 4.6 mph - N/A   Clear
6:53 AM 53.1 °F 33.1 °F 47% 29.84 in 10.0 mi SW 4.6 mph - N/A   Clear
7:53 AM 59.0 °F 28.9 °F 32% 29.82 in 10.0 mi SW 4.6 mph - N/A   Clear
9:53 AM 71.1 °F 30.0 °F 22% 29.77 in 10.0 mi SSW 12.7 mph - N/A   Clear
11:53 AM 78.1 °F 21.0 °F 12% 29.70 in 10.0 mi SW 25.3 mph 32.2 mph N/A   Clear
1:53 PM 80.1 °F 23.0 °F 12% 29.67 in 10.0 mi SW 23.0 mph 34.5 mph N/A   Clear
3:53 PM 73.0 °F 26.1 °F 17% 29.72 in 10.0 mi SW 26.5 mph 40.3 mph 0.00 in   Scattered Clouds
4:53 PM 71.1 °F 28.9 °F 21% 29.73 in 10.0 mi WSW 21.9 mph 28.8 mph N/A   Clear
5:53 PM 73.0 °F 27.0 °F 18% 29.69 in 10.0 mi SW 15.0 mph - N/A   Clear
6:53 PM 73.0 °F 26.1 °F 17% 29.66 in 10.0 mi SW 26.5 mph 35.7 mph N/A   Partly Cloudy
7:53 PM 71.1 °F 27.0 °F 19% 29.64 in 10.0 mi WSW 9.2 mph - N/A   Clear
9:53 PM 66.0 °F 24.1 °F 20% 29.65 in 10.0 mi WSW 17.3 mph - N/A   Clear
10:53 PM 63.0 °F 32.0 °F 31% 29.67 in 10.0 mi WSW 16.1 mph 25.3 mph N/A   Clear
11:53 PM 61.0 °F 33.1 °F 35% 29.66 in 10.0 mi WSW 16.1 mph - N/A   Clear